Find Starlink 30967

NORAD ID: 58416 Int'l Des: 2023-180 Owner: SPXS Country: US Constellation: starlink operational
LEOCIRCULAR

Current View

Loading 3D Globe...

About Starlink 30967

Starlink 30967 (NORAD 58416) is a starlink constellation satellite (v2 mini) launched Nov 22, 2023 by SPXS of US. It operates in LEO, CIRCULAR orbit with a mass of 730.00 kg.

Upcoming Passes

Passes for default location (London). Set your location on the main map for personalized predictions.

Altitude History

Loading altitude history...

Two-Line Element Set

1 58416U 23180Q 26235.86797219 .00001874 00000-0 77636-4 0 9998
2 58416 43.0019 188.4134 0001420 258.2968 101.7725 15.27575155153194
Epoch: Aug 23, 2026 • Age: 12 hours

Current Status

Altitude 487.8 km
Apogee / Perigee N/A
Velocity 7.62 km/s
Sub-Earth Point -22.30°S, 48.31°E
Launch Date Nov 22, 2023
Age 2.7 years
Type internet

Technical Details

Classification Payload
Mass 730.00 kg
Dry Mass 700.00 kg
Total Mass 730.00 kg
Length 0.30 m
Diameter 4.10 m
Span 29.00 m
Shape Box + pan
Manufacturer SPXS
Bus Type Starlink V2M
Phase Status In Orbit
Owner/State SPXS/US

Most Searched